Simultaneous Nadir Overpasses (SNOs) Predictions

Prediction of SNOs between AQUA and METOP-A Satellite Orbit:

Table of predicted SNOs for the next 14.0 days since TLE Epoch: 1/29/2016
Index Date (AQUA) Time (AQUA) Lat,Lon (AQUA) SZA (AQUA ) Date (METOP-A) Time (METOP-A) Lat,Lon (METOP-A) SZA (METOP-A ) Distance(km) Time Diff (sec)
1 01/31/2016 03:09:03 -73.13, -51.65 89.26 01/31/2016 03:07:58 -73.06, -54.73 89.18 99.88 65
2 01/31/2016 03:58:45 73.89, 114.38 91.55 01/31/2016 03:58:22 73.87, 114.45 91.53 3.35 23
3 01/31/2016 04:48:11 -73.91, -78.03 88.44 01/31/2016 04:49:02 -73.93, -78.06 88.43 2.67 51
4 02/02/2016 22:43:23 -73.41, 14.22 89.76 02/02/2016 22:42:14 -73.39, 12.41 89.69 57.60 69
5 02/02/2016 23:32:59 73.86,-179.10 90.72 02/02/2016 23:32:45 73.84,-179.20 90.71 3.37 14
6 02/03/2016 00:22:26 -73.93, -11.62 89.22 02/03/2016 00:23:25 -73.91, -11.70 89.24 3.03 59
7 02/05/2016 18:17:44 -73.75, 79.93 90.22 02/05/2016 18:16:31 -73.66, 79.45 90.27 18.02 73
8 02/05/2016 19:07:14 73.89,-112.73 89.92 02/05/2016 19:07:07 73.86,-112.73 89.90 2.56 7
9 02/05/2016 19:56:41 -73.96, 54.76 90.02 02/05/2016 19:57:47 -73.94, 54.77 90.05 2.09 66
10 02/08/2016 13:51:59 -73.85, 146.17 90.99 02/08/2016 13:50:49 -73.83, 146.27 90.99 3.61 70
11 02/08/2016 14:41:27 73.88, -46.27 89.04 02/08/2016 14:41:28 73.88, -46.27 89.05 0.28 1
12 02/08/2016 15:30:54 -73.95, 121.22 90.90 02/08/2016 15:32:08 -73.96, 121.24 90.90 1.51 74
13 02/11/2016 09:26:12 -73.80,-147.28 91.94 02/11/2016 09:25:12 -73.80,-147.38 91.92 3.14 60
14 02/11/2016 10:15:41 73.89, 20.16 88.15 02/11/2016 10:15:50 73.90, 20.18 88.16 1.24 9




NCC Satellite Simultaneous Nadir Overpasses (SNOs) Prediction Service
